FW2524 Weather Reports


time (UTC)temp
C
wind
direction
speed
KPH
gust
KPH
rain 1hr
cm
rain 24hr
cm
rain mn
cm
humidity
%
barometer
mb
20260906031525 21 242 0.0 3.2 0.00 0.00 0.00 84 1013.6
20260906030025 22 242 0.0 3.2 0.00 0.00 0.00 83 1013.5
20260906024521 22 241 0.0 3.2 0.00 0.00 0.00 83 1013.4
20260906023022 22 240 0.0 4.8 0.00 0.00 0.00 82 1013.2
20260906021519 22 138 1.6 6.4 0.00 0.00 0.00 76 1012.9
20260906020021 22 138 0.0 0.0 0.00 0.00 0.00 75 1012.7
20260906014556 22 138 0.0 1.6 0.00 0.00 0.00 75 1012.6
20260906013050 22 138 0.0 0.0 0.00 0.00 0.00 74 1012.7
20260906011545 22 138 0.0 0.0 0.00 0.00 0.00 73 1012.6
20260906010045 23 138 0.0 4.8 0.00 0.00 0.00 73 1012.5
20260906004544 23 300 1.6 3.2 0.00 0.00 0.00 71 1012.4
20260906003043 23 301 0.0 1.6 0.00 0.00 0.00 71 1012.2
20260906001540 23 301 0.0 1.6 0.00 0.00 0.00 70 1012.2
20260906000041 24 301 0.0 3.2 0.00 0.00 0.00 70 1012.2
20260905234538 25 300 0.0 0.0 0.00 0.00 0.00 68 1012.1
20260905233040 25 300 0.0 0.0 0.00 0.00 0.00 67 1011.9
20260905231506 26 300 0.0 3.2 0.00 0.00 0.00 65 1011.7
20260905230007 26 300 3.2 8.0 0.00 0.00 0.00 63 1011.7
20260905224503 26 274 0.0 11.3 0.00 0.00 0.00 63 1011.7
20260905223004 26 221 0.0 4.8 0.00 0.00 0.00 64 1011.4
20260905221501 26 292 3.2 8.0 0.00 0.00 0.00 61 1011.4
20260905220100 26 288 8.0 12.9 0.00 0.00 0.00 59 1011.6
20260905214556 26 288 4.8 11.3 0.00 0.00 0.00 61 1011.6
20260905213054 26 274 4.8 16.1 0.00 0.00 0.00 59 1012.0
20260905211558 27 355 3.2 12.9 0.00 0.00 0.00 58 1012.3
20260905210052 27 281 0.0 6.4 0.00 0.00 0.00 59 1012.4
20260905204517 25 290 1.6 6.4 0.00 0.00 0.00 60 1012.7
20260905203016 23 290 0.0 4.8 0.00 0.00 0.00 70 1013.4
20260905201541 22 155 0.0 3.2 0.00 0.00 0.00 81 1013.3
20260905200038 21 155 3.2 8.0 0.00 0.00 0.00 75 1013.0
20260905194533 21 119 4.8 6.4 0.00 0.00 0.00 75 1012.9
20260905193030 21 141 0.0 17.7 0.00 0.00 0.00 69 1011.9
20260905191525 22 348 4.8 25.7 0.00 0.00 0.00 66 1013.1
20260905190023 27 311 32.2 56.3 0.00 0.00 0.00 47 1013.8
20260905184522 33 306 6.4 16.1 0.00 0.00 0.00 39 1012.4
20260905183019 35 351 6.4 12.9 0.00 0.00 0.00 37 1012.3
20260905181517 35 315 3.2 16.1 0.00 0.00 0.00 36 1011.6
20260905180014 35 319 4.8 12.9 0.00 0.00 0.00 36 1012.3
20260905174511 35 304 1.6 16.1 0.00 0.00 0.00 39 1012.7
20260905173009 35 319 6.4 17.7 0.00 0.00 0.00 37 1013.0
20260905171510 35 9 4.8 17.7 0.00 0.00 0.00 36 1013.1
20260905170007 35 345 4.8 12.9 0.00 0.00 0.00 37 1013.4
20260905164538 35 104 8.0 14.5 0.00 0.00 0.00 38 1013.8
20260905163038 35 143 4.8 9.7 0.00 0.00 0.00 37 1013.9
20260905161533 35 40 3.2 9.7 0.00 0.00 0.00 38 1014.1
20260905160033 35 5 3.2 6.4 0.00 0.00 0.00 41 1014.2
20260905154535 33 25 3.2 9.7 0.00 0.00 0.00 42 1014.2
20260905153030 33 118 1.6 8.0 0.00 0.00 0.00 45 1014.1
20260905151527 33 288 3.2 8.0 0.00 0.00 0.00 44 1014.2
20260905150033 32 271 0.0 8.0 0.00 0.00 0.00 50 1014.3
20260905144526 31 301 3.2 14.5 0.00 0.00 0.00 52 1014.3
20260905143025 31 292 1.6 6.4 0.00 0.00 0.00 52 1014.3
20260905141525 31 300 1.6 8.0 0.00 0.00 0.00 60 1014.4
20260905140023 31 216 0.0 3.2 0.00 0.00 0.00 60 1014.3
20260905134526 30 296 3.2 6.4 0.00 0.00 0.00 63 1014.4
20260905133021 29 314 3.2 12.9 0.00 0.00 0.00 64 1014.7
20260905131521 29 279 0.0 3.2 0.00 0.00 0.00 67 1014.9
20260905130018 28 279 0.0 4.8 0.00 0.00 0.00 68 1014.7
20260905124520 28 330 0.0 3.2 0.00 0.00 0.00 69 1014.7
20260905123016 27 338 0.0 0.0 0.00 0.00 0.00 74 1014.6
20260905121517 25 320 0.0 4.8 0.00 0.00 0.00 77 1014.5
20260905120012 24 208 0.0 1.6 0.00 0.00 0.00 86 1014.3
20260905114504 23 208 0.0 1.6 0.00 0.00 0.00 87 1014.1
20260905113005 22 207 1.6 4.8 0.00 0.00 0.00 87 1014.0
20260905110003 22 202 0.0 0.0 0.00 0.00 0.00 87 1013.6
20260905104502 22 202 0.0 0.0 0.00 0.00 0.00 86 1013.5
20260905103004 22 202 0.0 1.6 0.00 0.00 0.00 85 1013.4
20260905101659 21 202 0.0 1.6 0.00 0.00 0.00 78 1013.4
20260905100105 22 202 0.0 0.0 0.00 0.00 0.00 79 1013.1
20260905094558 22 202 0.0 0.0 0.00 0.00 0.00 76 1013.3
20260905093056 22 202 0.0 0.0 0.00 0.00 0.00 73 1013.4
20260905091654 22 202 0.0 0.0 0.00 0.00 0.00 73 1013.3
20260905090034 22 202 0.0 0.0 0.00 0.00 0.00 73 1013.2
20260905084527 22 202 0.0 6.4 0.00 0.00 0.00 73 1013.4
20260905083024 22 168 0.0 0.0 0.00 0.00 0.00 73 1013.6
20260905081523 22 168 0.0 0.0 0.00 0.00 0.00 73 1013.7
20260905080020 22 168 0.0 0.0 0.00 0.00 0.00 73 1013.9
20260905074518 22 168 0.0 0.0 0.00 0.00 0.00 72 1014.0
20260905073014 22 168 0.0 0.0 0.00 0.00 0.00 71 1014.1
20260905071513 23 168 0.0 0.0 0.00 0.00 0.00 70 1014.2
20260905070011 23 168 0.0 3.2 0.00 0.00 0.00 71 1014.3
20260905064510 23 169 0.0 0.0 0.00 0.00 0.00 71 1014.5
20260905063006 23 169 0.0 4.8 0.00 0.00 0.00 70 1014.5
20260905061503 23 269 0.0 0.0 0.00 0.00 0.00 67 1014.6
20260905060001 24 269 0.0 0.0 0.00 0.00 0.00 67 1014.9
20260905054600 24 269 0.0 0.0 0.00 0.00 0.00 67 1015.0
20260905053056 24 269 0.0 0.0 0.00 0.00 0.00 66 1015.0
20260905051601 25 269 0.0 0.0 0.00 0.00 0.00 66 1015.1
20260905050053 25 269 0.0 0.0 0.00 0.00 0.00 65 1015.1
20260905044552 26 269 0.0 0.0 0.00 0.00 0.00 63 1015.0
20260905043056 26 269 0.0 0.0 0.00 0.00 0.00 62 1015.1
20260905041549 26 269 0.0 0.0 0.00 0.00 0.00 64 1015.0
20260905040055 26 269 0.0 0.0 0.00 0.00 0.00 63 1015.0
20260905034546 26 188 0.0 0.0 0.00 0.00 0.00 63 1015.0
20260905033047 25 188 0.0 0.0 0.00 0.00 0.00 65 1015.0